[[{"header":{"parameterUnit":"m.s-1","parameterCategory":1,"la1":30.2991,"la2":30.254,"lo1":-89.0895,"lo2":-89.0444,"dy":0.0017,"dx":0.0017,"nx":28,"ny":28,"refTime":"2025-07-08T21:00:00:Z","depth":0,"parameterNumber":2,"parameterNumberName":"U-component_of_WINDS"},"data":[0,0,0,0,0,0,0,0,0,0,0,0,0,0,0,0,0,0,0,0,0,0,0,0,0,0,0,0,0,0,0,0,0,0,0,0,0,0,0,0,0,0,0,0,0,0,0,0,0,0,0,0,0,0,0,0,0,0,2.7407,2.7409,0,2.7564,2.7565,2.7567,2.7603,2.7602,2.7601,2.76,2.7767,2.7773,2.7778,0,0,0,0,0,0,0,0,0,0,0,0,0,2.7147,2.7152,2.7407,2.7409,2.7411,2.7563,2.7565,2.7568,2.7603,2.7602,2.7601,2.7599,2.7765,2.7772,2.7779,0,0,0,0,0,0,0,0,0,0,0,0,0,2.7277,2.7153,2.7407,2.7447,2.7452,2.7563,2.7565,2.7568,2.7604,2.7602,2.76,2.7599,2.7763,2.7771,2.7779,2.7863,0,0,2.7805,2.7808,0,0,0,0,0,0,0,0,2.727,2.7287,2.7439,2.7445,2.7451,2.7562,2.7535,2.7667,2.7604,2.7546,2.76,2.7598,2.7701,2.7714,2.7747,2.7871,2.7878,2.7805,2.781,2.7814,2.7816,0,0,0,0,0,0,0,2.7261,2.728,2.7469,2.7442,2.7448,2.746,2.7476,2.756,2.7631,2.7551,2.7554,2.7572,2.7704,2.7739,2.7751,2.7881,2.7805,2.7812,2.7817,2.7821,2.8082,2.8084,0,0,0,0,0,0,2.7244,2.7273,2.7464,2.7474,2.7354,2.7466,2.7484,2.7528,2.763,2.7644,2.7573,2.7573,2.7726,2.7742,2.7757,2.7863,2.7814,2.7821,2.7826,2.808,2.8083,2.8085,0,0,0,0,0,0,2.7238,2.7261,2.7458,2.7374,2.74,2.7472,2.7521,2.7532,2.7568,2.7647,2.766,2.7596,2.7725,2.7746,2.7836,2.787,2.7825,2.7833,2.8078,2.8081,2.8084,2.8075,0,0,0,0,0,0,2.723,2.7258,2.7289,2.7374,2.7404,2.7532,2.7523,2.7536,2.7581,2.7582,2.7672,2.7685,2.7726,2.7824,2.7845,2.788,2.7839,2.8075,2.8079,2.8083,2.8072,2.8077,2.8081,0,0,0,0,0,2.7221,2.7282,2.7291,2.7314,2.7444,2.7534,2.7552,2.7595,2.7583,2.7616,2.7667,2.7682,2.7862,2.7833,2.7856,2.7895,2.8074,2.8078,2.8083,2.8071,2.8076,2.8081,0,0,0,0,0,0,2.7202,2.7294,2.7305,2.7394,2.7456,2.754,2.7583,2.7599,2.7667,2.7666,2.7719,2.7739,2.7826,2.787,2.7835,2.7982,2.7968,2.7977,2.795,2.7956,2.7961,2.7949,2.7846,0,0,0,0,0,2.7207,2.727,2.7348,2.742,2.745,2.7511,2.7552,2.7579,2.7646,2.7673,2.7731,2.7797,2.7868,2.7915,2.7985,2.8078,2.8099,2.8116,2.8121,2.8124,2.8132,2.8186,2.8195,2.81,2.81,2.81,0,0,2.7221,2.7279,2.7316,2.7418,2.7469,2.7535,2.7533,2.7603,2.7653,2.7685,2.7773,2.7817,2.7895,2.7987,2.8031,2.8026,2.8162,2.8129,2.8131,2.8138,2.8191,2.82,2.8208,2.8103,2.8102,2.8102,0,0,2.728,2.7329,2.7394,2.7445,2.752,2.756,2.7576,2.7657,2.7687,2.7776,2.7801,2.7863,2.7985,2.8039,2.8083,2.816,2.8178,2.8182,2.8205,2.8257,2.8264,2.8271,2.8301,2.831,2.8189,2.8189,2.8189,0,2.7288,2.7386,2.7427,2.7495,2.754,2.7568,2.7636,2.7684,2.778,2.7811,2.7804,2.7957,2.8011,2.8117,2.8136,2.817,2.8191,2.8173,2.8259,2.8267,2.8274,2.8303,2.8313,2.8189,2.8189,2.8189,2.8189,0,2.7393,2.746,2.7505,2.7594,2.7643,2.7711,2.7765,2.781,2.7833,2.7874,2.7966,2.8031,2.8115,2.8142,2.8166,2.8252,2.8247,2.8248,2.8236,2.8282,2.831,2.8322,2.819,2.819,2.819,2.819,0,0,2.7446,2.7555,2.7571,2.7611,2.7697,2.7751,2.7821,2.79,2.7939,2.8004,2.8066,2.8167,2.8169,2.8219,2.8249,2.8294,2.8353,2.8291,2.8294,2.8302,2.8454,2.8453,2.8464,2.8364,2.8366,2.8368,2.8447,0,2.7516,2.7639,2.7677,2.7782,2.7846,2.7873,2.7934,2.7994,2.8034,2.8096,2.8141,2.8213,2.8209,2.8239,2.8285,2.8336,2.8385,2.8331,2.8425,2.8427,2.8406,2.8479,2.8478,2.855,2.8458,2.846,2.8462,0,2.7615,2.7679,2.7788,2.7865,2.7893,2.7947,2.8023,2.8081,2.815,2.8177,2.8231,2.8257,2.8333,2.8314,2.8421,2.8384,2.8424,2.8455,2.8459,2.8471,2.8449,2.8495,2.8574,2.8585,2.8479,2.8478,2.8476,0,2.7645,2.7758,2.7838,2.7872,2.7963,2.8001,2.8041,2.8108,2.8153,2.822,2.8251,2.8327,2.8369,2.8428,2.8475,2.8456,2.8578,2.8563,2.8604,2.8603,2.8631,2.8629,2.8719,2.8653,2.8653,2.8653,2.8653,0,2.772,2.7787,2.7852,2.7902,2.7978,2.8022,2.8096,2.8138,2.8197,2.8257,2.8286,2.8342,2.8399,2.8464,2.8501,2.8585,2.8604,2.8629,2.8638,2.8627,2.8624,2.8656,2.8653,2.8656,2.8655,2.8655,2.8654,0,2.7767,2.7813,2.7903,2.7981,2.8002,2.8054,2.8122,2.8173,2.8213,2.8288,2.8309,2.8373,2.845,2.8502,2.8602,2.8627,2.8718,2.8726,2.8694,2.8699,2.8738,2.8734,2.8854,2.8872,2.8792,2.8793,2.8793,0,2.7813,2.7865,2.7947,2.7988,2.8027,2.8093,2.8138,2.8184,2.8231,2.8312,2.8353,2.8432,2.8497,2.8619,2.8677,2.8753,2.8764,2.88,2.8776,2.8763,2.8767,2.8764,2.877,2.8805,2.8806,2.8806,2.8807,0,2.7891,2.7911,2.7974,2.8045,2.8098,2.8157,2.8217,2.8249,2.8305,2.8357,2.8434,2.8484,2.8584,2.8663,2.8744,2.8788,2.8808,2.8813,2.8827,2.8818,2.8798,2.881,2.8706,2.8811,2.8811,2.881,2.881,2.881,2.7941,2.7987,2.8052,2.8122,2.817,2.8225,2.8276,2.8321,2.8386,2.8469,2.8492,2.8574,2.8642,2.8753,2.8798,2.8864,2.8861,2.8881,2.8886,2.8891,2.8892,2.8785,2.8879,2.8879,2.8879,2.8879,2.8879,0,2.8021,2.8063,2.8127,2.8207,2.8262,2.8272,2.8338,2.8384,2.8455,2.8515,2.8578,2.8668,2.8743,2.8805,2.8884,2.8925,2.8936,2.8944,2.8943,2.8953,2.8889,2.887,2.8934,2.8934,2.8934,2.8934,2.8934,2.8934,2.8069,2.8149,2.8177,2.8282,2.8325,2.8402,2.8439,2.849,2.8539,2.8637,2.8699,2.8737,2.8799,2.8882,2.8953,2.897,2.8998,2.9005,2.9024,2.8964,2.8957,2.8952,2.8934,2.901,2.901,2.9082,2.9083,2.9083]},{"header":{"parameterUnit":"m.s-1","parameterCategory":1,"la1":30.2991,"la2":30.254,"lo1":-89.0895,"lo2":-89.0444,"dy":0.0017,"dx":0.0017,"nx":28,"ny":28,"refTime":"2025-07-08T21:00:00:Z","depth":0,"parameterNumber":3,"parameterNumberName":"V-component_of_WINDS"},"data":[0,0,0,0,0,0,0,0,0,0,0,0,0,0,0,0,0,0,0,0,0,0,0,0,0,0,0,0,0,0,0,0,0,0,0,0,0,0,0,0,0,0,0,0,0,0,0,0,0,0,0,0,0,0,0,0,0,0,1.8883,1.8883,0,1.8823,1.8822,1.8822,1.8776,1.8775,1.8775,1.8775,1.8712,1.8711,1.8709,0,0,0,0,0,0,0,0,0,0,0,0,0,1.8956,1.8955,1.8883,1.8883,1.8882,1.8823,1.8822,1.8822,1.8776,1.8775,1.8775,1.8774,1.8712,1.8711,1.8709,0,0,0,0,0,0,0,0,0,0,0,0,0,1.8913,1.8955,1.8883,1.8852,1.8849,1.8823,1.8822,1.8821,1.8776,1.8775,1.8775,1.8774,1.8713,1.8711,1.8709,1.871,0,0,1.8703,1.8702,0,0,0,0,0,0,0,0,1.8916,1.891,1.8857,1.8854,1.885,1.8806,1.8825,1.8784,1.8776,1.8804,1.8775,1.8774,1.8744,1.8739,1.8729,1.8707,1.8704,1.8703,1.8702,1.8701,1.8701,0,0,0,0,0,0,0,1.8919,1.8913,1.8859,1.8857,1.8852,1.884,1.8833,1.8817,1.8778,1.8801,1.8798,1.8791,1.8742,1.8731,1.8728,1.8703,1.8703,1.8701,1.87,1.87,1.8676,1.8676,0,0,0,0,0,0,1.8927,1.8916,1.8861,1.8858,1.8882,1.8839,1.8832,1.8821,1.8778,1.8771,1.8792,1.8789,1.8735,1.873,1.8725,1.8721,1.8701,1.8699,1.8698,1.8675,1.8676,1.8676,0,0,0,0,0,0,1.8928,1.8922,1.8864,1.8886,1.8877,1.8839,1.8827,1.882,1.881,1.8771,1.8764,1.8788,1.8734,1.8728,1.8713,1.8718,1.8698,1.8697,1.8675,1.8675,1.8676,1.8715,0,0,0,0,0,0,1.8931,1.8923,1.8924,1.8886,1.8876,1.8854,1.8828,1.8819,1.8807,1.8803,1.8766,1.8759,1.8733,1.8717,1.8712,1.8715,1.8695,1.8674,1.8675,1.8676,1.8713,1.8717,1.872,0,0,0,0,0,1.8934,1.8938,1.8924,1.8918,1.8876,1.8854,1.8849,1.8819,1.8807,1.8807,1.8782,1.876,1.8719,1.8716,1.8709,1.8713,1.8673,1.8675,1.8676,1.8711,1.8716,1.872,0,0,0,0,0,0,1.8977,1.8932,1.8917,1.8909,1.8886,1.8847,1.8846,1.8826,1.8805,1.8802,1.8766,1.8758,1.8747,1.8729,1.8726,1.871,1.8693,1.8693,1.8722,1.8726,1.873,1.8734,1.8694,0,0,0,0,0,1.8986,1.8973,1.8934,1.893,1.8919,1.8885,1.8874,1.8853,1.8828,1.8818,1.8791,1.8767,1.8748,1.8736,1.8717,1.871,1.87,1.8709,1.8713,1.8716,1.8716,1.8708,1.8711,1.868,1.868,1.868,0,0,1.9004,1.8977,1.8971,1.8938,1.8918,1.8904,1.8877,1.8864,1.8852,1.8815,1.88,1.878,1.875,1.8738,1.8732,1.8723,1.8722,1.8718,1.872,1.8718,1.871,1.8713,1.8715,1.8681,1.8681,1.8681,0,0,1.9028,1.9008,1.9002,1.8982,1.8951,1.8928,1.8926,1.889,1.8875,1.8859,1.883,1.8816,1.8785,1.8764,1.8749,1.8764,1.8743,1.8759,1.8778,1.8771,1.8773,1.8775,1.8778,1.878,1.876,1.876,1.876,0,1.9054,1.9032,1.9001,1.8989,1.8974,1.894,1.8933,1.8915,1.888,1.887,1.886,1.8819,1.8796,1.8778,1.8782,1.8772,1.8768,1.8763,1.8775,1.8777,1.8778,1.8781,1.8782,1.8762,1.8761,1.8761,1.8761,0,1.9064,1.9049,1.9048,1.9014,1.9,1.899,1.8956,1.8945,1.8925,1.8902,1.8885,1.8857,1.883,1.8824,1.8805,1.8803,1.8798,1.8782,1.8765,1.8784,1.8785,1.8786,1.8765,1.8764,1.8763,1.8763,0,0,1.9115,1.9063,1.9063,1.9046,1.9009,1.8997,1.8985,1.8959,1.8949,1.8925,1.8913,1.8887,1.8871,1.8855,1.8833,1.8827,1.8837,1.8811,1.881,1.8815,1.8831,1.8841,1.8843,1.8823,1.8824,1.8824,1.8832,0,1.9132,1.9109,1.908,1.9066,1.9051,1.9018,1.9007,1.8982,1.8961,1.8943,1.8919,1.89,1.8882,1.8872,1.8864,1.8838,1.884,1.8837,1.881,1.8809,1.8817,1.8845,1.8856,1.8866,1.8833,1.8833,1.8833,0,1.9149,1.9127,1.9112,1.9074,1.9067,1.9058,1.903,1.9015,1.8986,1.897,1.8951,1.8927,1.8911,1.8896,1.8872,1.8871,1.8858,1.8843,1.8842,1.8838,1.8822,1.8839,1.8869,1.887,1.8834,1.8834,1.8834,0,1.9185,1.9151,1.9137,1.9124,1.9081,1.9075,1.9056,1.9027,1.9012,1.8988,1.8978,1.8953,1.8938,1.8918,1.8887,1.888,1.8866,1.8849,1.8851,1.8851,1.8848,1.8849,1.8875,1.8843,1.8843,1.8843,1.8843,0,1.9206,1.9197,1.9152,1.9143,1.9132,1.9099,1.9088,1.9066,1.904,1.9025,1.8996,1.8982,1.8943,1.8924,1.89,1.8882,1.8877,1.8862,1.8856,1.8864,1.8866,1.8854,1.8852,1.8843,1.8843,1.8843,1.8843,0,1.9243,1.9213,1.9195,1.9155,1.9145,1.9139,1.9104,1.9093,1.9069,1.9051,1.9045,1.9007,1.8983,1.8951,1.8917,1.8901,1.8886,1.8877,1.8896,1.8892,1.8895,1.8894,1.8914,1.8913,1.8883,1.8884,1.8884,0,1.9258,1.9251,1.921,1.9198,1.9181,1.9163,1.9147,1.9114,1.9099,1.9064,1.9057,1.9032,1.9009,1.8973,1.8942,1.8915,1.8904,1.8912,1.89,1.8908,1.8902,1.8902,1.89,1.8915,1.8916,1.8916,1.8916,0,1.9287,1.9272,1.9252,1.9226,1.9209,1.9187,1.9163,1.9155,1.9116,1.91,1.9076,1.9059,1.9024,1.8998,1.8967,1.8947,1.8924,1.8921,1.8919,1.8927,1.8938,1.893,1.8903,1.892,1.892,1.8919,1.8919,1.8919,1.9312,1.9303,1.9273,1.9251,1.9229,1.9208,1.9195,1.917,1.9149,1.9119,1.91,1.9076,1.9045,1.9001,1.8982,1.8961,1.8952,1.8951,1.895,1.895,1.8952,1.8942,1.8956,1.8956,1.8956,1.8955,1.8955,0,1.9337,1.9316,1.9296,1.9264,1.9246,1.9228,1.92,1.9186,1.9166,1.9139,1.9117,1.9089,1.9063,1.9029,1.9001,1.8991,1.898,1.8985,1.8984,1.8979,1.8963,1.8966,1.8994,1.8994,1.8994,1.8994,1.8994,1.8994,1.9348,1.9332,1.9313,1.9285,1.9263,1.924,1.9226,1.9205,1.9183,1.9153,1.9131,1.911,1.908,1.9049,1.9024,1.9014,1.9004,1.9012,1.8999,1.8984,1.8981,1.8978,1.898,1.9011,1.9011,1.9017,1.9017,1.9018]}]]